Flag for U.S.A. Weather past 2 weeks in Boise, Idaho, U.S.A.

Now
89 °F

Sunny.


Feels Like: 85 °F
Forecast: 71 / 102 °F
Wind: 10 mph from South

Location: Boise Air Terminal

Current Time: Aug 2, 2015 at 11:35:29 AM

Latest Report: Aug 2, 2015 at 10:53 AM


Visibility: 10 mi

Pressure: 29.82 "Hg (27.19 "Hg at 822m altitude)

Humidity: 16%

Dew point: 37 °F

Location of BoiseLocation

Historic Weather in Boise — Graph

°F

Boise temperature yesterday

Maximum temperature yesterday: 103 °F (at 5:53 PM)
Minimum temperature yesterday: 69 °F (at 6:53 AM)
Average temperature yesterday: 87 °F

Past Weeks' High & Low Weather Summary

 TemperatureHumidityPressure
High103 °F (Aug 1, 5:53 PM)84% (Jul 23, 4:53 AM)30.22 "Hg (Jul 23, 4:53 AM)
Low51 °F (Jul 28, 5:53 AM)8% (Aug 1, 5:53 PM)29.62 "Hg (Jul 21, 8:53 PM)
Average77 °F32%29.93 "Hg
* Reported Jul 18 9:53 AM — Aug 2 9:53 AM, Boise, Weather by CustomWeather, © 2015

Note: Actual official high and low records may vary slightly from our data, if they occured in-between our weather recording intervals... More about our weather records

Advertising

Boise weather history for previous 24 hours

 ConditionsComfort  
Time TempWeatherWind HumidityBarometerVisibility
9:53 AM
Sun, Aug 2
82 °FSunny.5 mph25%29.82 "Hg10 mi
8:53 AM77 °FSunny.5 mph26%29.81 "Hg10 mi
7:53 AM72 °FClear.No wind29%29.80 "Hg10 mi
6:53 AM70 °FClear.6 mph30%29.79 "Hg10 mi
5:53 AM70 °FClear.No wind30%29.77 "Hg10 mi
4:53 AM74 °FClear.5 mph25%29.76 "Hg10 mi
3:53 AM74 °FClear.5 mph28%29.77 "Hg10 mi
2:53 AM76 °FClear.5 mph25%29.75 "Hg10 mi
1:53 AM77 °FClear.6 mph24%29.76 "Hg10 mi
12:53 AM80 °FClear.6 mph20%29.76 "Hg10 mi
11:53 PM
Sat, Aug 1
84 °FClear.7 mph17%29.76 "Hg10 mi
10:53 PM82 °FSunny.3 mph18%29.77 "Hg10 mi
9:53 PM89 °FSunny.No wind19%29.76 "Hg10 mi
8:53 PM96 °FSunny.3 mph13%29.75 "Hg10 mi
7:53 PM100 °FSunny.6 mph10%29.75 "Hg10 mi
6:53 PM101 °FSunny.8 mph10%29.77 "Hg10 mi
5:53 PM103 °FSunny.8 mph8%29.79 "Hg10 mi
4:53 PM102 °FSunny.8 mph10%29.80 "Hg10 mi
3:53 PM101 °FSunny.7 mph10%29.83 "Hg10 mi
2:53 PM100 °FSunny.7 mph11%29.85 "Hg10 mi
1:53 PM98 °FSunny.5 mph11%29.88 "Hg10 mi
12:53 PM97 °FSunny.No wind11%29.90 "Hg10 mi
11:53 AM93 °FSunny.3 mph14%29.92 "Hg10 mi
Weather by CustomWeather, © 2015

See weather overviewHow to use our weather pages